Погода в Ялыкаваке

Турция     37°06′05″N   27°17′56″E
темп.,
°C
ветер,
м/с
пор.,
м/с
влажн.,
%
обл.,
%
осадки,
мм/ч
давл.,
гПа
погр.,
м
26 июля, пн
пн2600:00+25ссв22680 0.0 100916
03:00+24ссз45650 0.0 100987
06:00+24с56660 0.0 1009125
09:00+26с56570 0.0 1011229
12:00+28сз77560 0.0 1011459
15:00+27зсз911640 0.0 1011297
18:00+26сз913690 0.0 1010254
21:00+25сз812740 0.0 1010193
27 июля, вт
вт2700:00+25с34680 0.0 101139
03:00+25ссз34650 0.0 101139
06:00+25с44600 0.0 101055
09:00+27с58530 0.0 1011182
12:00+29сз79480 0.0 1011518
15:00+29сз912510 0.0 1010274
18:00+29сз914550 0.0 1008183
21:00+27сз69660 0.0 1008103
28 июля, ср
ср2800:00+27ссв44520 0.0 100927
03:00+27с34470 0.0 100827
06:00+26с45530 0.0 100856
09:00+28с46470 0.0 1009168
12:00+31с58450 0.0 1008469
15:00+31сз912470 0.0 1007500
18:00+29сз811560 0.0 1005165
21:00+28ссз46630 0.0 100655
29 июля, чт
чт2900:00+28с44490 0.0 100628
03:00+27с45490 0.0 100640
06:00+26с57530 0.0 100576
09:00+29с69460 0.0 1006238
12:00+30ссз79460 0.0 1006507
15:00+30сз1014450 0.0 1004297
18:00+30сз1016520 0.0 1003227
21:00+31с1018440 0.0 1003270
30 июля, пт
пт3000:00+27с44550 0.0 100432
03:00+26ссз45550 0.0 100440
06:00+25ссз57570 0.0 100482
09:00+28с59460 0.0 1005212
12:00+30ссз810450 0.0 1004539
15:00+31сз1014440 0.0 1003307
18:00+30сз1016530 0.0 1002259
21:00+30ссз917510 0.0 1003242